Weather History for KRMY - February, 2014

Change the Weather History Date:

Monday, February 3, 2014

  Actual Average (KBTL) Record (KBTL)
Temperature  
Mean Temperature 4 °F 24 °F  
Max Temperature 23 °F 33 °F 44 °F (2003)
Min Temperature -15 °F 16 °F -5 °F (2014)
Degree Days  
Heating Degree Days 61 41  
Month to date heating degree days 123  
Since 1 July heating degree days 4006  
Cooling Degree Days 0 0  
Month to date cooling degree days 0  
Year to date cooling degree days 0  
Moisture  
Dew Point -2 °F    
Average Humidity 78    
Maximum Humidity 94    
Minimum Humidity 54    
Precipitation  
Precipitation 0.00 in 0.04 in 0.48 in (2003)
Month to date precipitation 0.12  
Year to date precipitation 1.78  
Sea Level Pressure  
Sea Level Pressure 30.29 in    
Wind  
Wind Speed 0 mph (SW)    
Max Wind Speed 8 mph    
Max Gust Speed -    
Visibility 8 miles    
Events Fog    
T = Trace of Precipitation, MM = Missing Value Source: NWS Daily Summary

Daily Weather History Graph

Daily Weather History Graph

Search for Another Location

Airport or City:

Trip Planner

Search our weather history database for the weather conditions in past years. The results will help you decide how hot, cold, wet, or windy it might be!

Date:

Astronomy

Feb. 03, 2014 Rise Set
Actual Time 7:51 AM EST 5:56 PM EST
Civil Twilight 7:21 AM EST 6:26 PM EST
Nautical Twilight 6:48 AM EST 6:59 PM EST
Astronomical Twilight 6:15 AM EST 7:32 PM EST
Moon 9:47 AM EST (2/3) 10:52 PM EST (2/3)
Length of Visible Light 11h 04m
Length of Day
10h 05m
Waxing Crescent, 19% of the Moon is Illuminated
Feb 3
Waxing Crescent
Feb 6
First Quarter
Feb 14
Full
Feb 22
Last Quarter
Mar 1
New

Hourly Weather History & Observations

Time (EST) Temp. Windchill Dew Point Humidity Pressure Visibility Wind Dir Wind Speed Gust Speed Precip Events Conditions
12:13 AM 4.8 °F - 1.9 °F 88% 30.25 in 5.0 mi Calm Calm - N/A   Clear
12:34 AM 6.3 °F - 4.1 °F 91% 30.24 in 7.0 mi Calm Calm - N/A   Clear
12:53 AM 4.1 °F - 2.7 °F 94% 30.23 in 5.0 mi Calm Calm - N/A   Clear
1:13 AM -4.5 °F - -7.6 °F 87% 30.23 in 7.0 mi Calm Calm - N/A   Clear
1:34 AM -3.1 °F - -5.4 °F 90% 30.24 in 0.5 mi Calm Calm - N/A Fog Light Freezing Fog
1:53 AM 0.1 °F - -2.9 °F 87% 30.25 in 0.2 mi Calm Calm - N/A Fog Light Freezing Fog
2:13 AM -4.0 °F - -7.4 °F 85% 30.23 in 7.0 mi Calm Calm - N/A   Clear
2:34 AM -2.9 °F - -6.2 °F 86% 30.25 in 0.8 mi Calm Calm - N/A   Mist
2:53 AM -7.1 °F - -12.3 °F 78% 30.25 in 0.8 mi Calm Calm - N/A   Haze
3:13 AM -7.2 °F - -11.4 °F 82% 30.25 in 0.2 mi Calm Calm - N/A   Haze
3:34 AM -3.3 °F - -6.9 °F 85% 30.25 in 10.0 mi Calm Calm - N/A   Clear
3:53 AM -7.1 °F - -11.2 °F 82% 30.24 in 10.0 mi Calm Calm - N/A   Clear
4:13 AM -10.7 °F - -15.3 °F 80% 30.25 in 5.0 mi Calm Calm - N/A   Haze
4:34 AM -6.0 °F - -9.8 °F 84% 30.24 in 10.0 mi Calm Calm - N/A   Clear
4:53 AM -11.9 °F - -16.6 °F 80% 30.24 in 10.0 mi Calm Calm - N/A   Clear
5:13 AM -6.0 °F - -9.8 °F 84% 30.24 in 10.0 mi Calm Calm - N/A   Clear
5:34 AM -10.3 °F - -14.8 °F 81% 30.25 in 10.0 mi Calm Calm - N/A   Scattered Clouds
5:53 AM -10.7 °F - -15.0 °F 81% 30.24 in 10.0 mi Calm Calm - N/A   Scattered Clouds
6:13 AM -13.4 °F - -17.9 °F 80% 30.25 in 10.0 mi Calm Calm - N/A   Clear
6:34 AM -11.9 °F - -16.2 °F 81% 30.26 in 7.0 mi Calm Calm - N/A   Clear
6:53 AM -13.2 °F - -17.3 °F 82% 30.27 in 7.0 mi Calm Calm - N/A   Scattered Clouds
7:13 AM -11.0 °F - -15.5 °F 80% 30.28 in 10.0 mi Calm Calm - N/A   Scattered Clouds
7:34 AM -14.8 °F - -19.7 °F 79% 30.29 in 10.0 mi Calm Calm - N/A   Scattered Clouds
7:53 AM -12.6 °F - -17.1 °F 80% 30.29 in 3.0 mi Calm Calm - N/A   Mostly Cloudy
8:13 AM -11.0 °F - -15.7 °F 80% 30.29 in 0.2 mi Calm Calm - N/A   Haze
8:34 AM -12.1 °F - -16.2 °F 82% 30.30 in 0.2 mi Calm Calm - N/A Fog Light Freezing Fog
8:53 AM -15.2 °F - -20.4 °F 77% 30.31 in 0.2 mi Calm Calm - N/A   Haze
9:14 AM -9.6 °F - -14.1 °F 81% 30.31 in 0.2 mi Calm Calm - N/A Fog Light Freezing Fog
9:34 AM -6.9 °F - -11.4 °F 81% 30.32 in 0.2 mi Calm Calm - N/A Fog Light Freezing Fog
9:53 AM -4.4 °F - -8.3 °F 83% 30.32 in 0.2 mi Calm Calm - N/A   Haze
10:14 AM 0.3 °F - -3.5 °F 84% 30.32 in 0.2 mi Calm Calm - N/A Fog Light Freezing Fog
10:34 AM - - - N/A% 30.33 in 0.2 mi Calm Calm - N/A   Unknown
10:53 AM - - - N/A% 30.33 in 7.0 mi Calm Calm - N/A   Clear
11:14 AM 9.0 °F - 5.9 °F 87% 30.33 in 10.0 mi Calm Calm - N/A   Clear
11:34 AM 11.8 °F - 8.8 °F 88% 30.32 in 10.0 mi Calm Calm - N/A   Clear
11:53 AM 12.9 °F - 10.2 °F 89% 30.31 in 10.0 mi Calm Calm - N/A   Clear
12:14 PM 14.0 °F - 11.5 °F 90% 30.30 in 10.0 mi Calm Calm - N/A   Clear
12:33 PM 19.0 °F - 16.2 °F 89% 30.30 in 10.0 mi Calm Calm - N/A   Clear
12:53 PM 18.3 °F - 9.1 °F 67% 30.30 in 10.0 mi Calm Calm - N/A   Clear
1:14 PM 18.1 °F - 8.4 °F 66% 30.29 in 10.0 mi Calm Calm - N/A   Clear
1:33 PM 19.2 °F - 8.6 °F 63% 30.29 in 10.0 mi Calm Calm - N/A   Clear
1:53 PM 21.4 °F - 9.0 °F 59% 30.28 in 10.0 mi Calm Calm - N/A   Clear
2:14 PM 20.1 °F - 8.4 °F 61% 30.29 in 10.0 mi Calm Calm - N/A   Clear
2:33 PM 23.2 °F 17.2 °F 9.0 °F 55% 30.29 in 10.0 mi West 4.6 mph - N/A   Clear
2:53 PM 22.3 °F 14.9 °F 7.9 °F 54% 30.29 in 10.0 mi SW 5.8 mph - N/A   Clear
3:14 PM 22.3 °F 17.6 °F 8.6 °F 56% 30.29 in 10.0 mi SSW 3.5 mph - N/A   Clear
3:33 PM 22.3 °F 14.9 °F 8.2 °F 55% 30.30 in 10.0 mi SW 5.8 mph - N/A   Clear
3:53 PM 22.3 °F 13.0 °F 7.7 °F 54% 30.31 in 10.0 mi SW 8.1 mph - N/A   Clear
4:14 PM 22.1 °F - 7.7 °F 54% 30.31 in 10.0 mi North - - N/A   Clear
4:33 PM 21.6 °F - 7.5 °F 55% 30.31 in 10.0 mi North - - N/A   Clear
4:53 PM 21.4 °F 13.8 °F 7.3 °F 55% 30.30 in 10.0 mi SW 5.8 mph - N/A   Clear
5:14 PM 20.1 °F 13.6 °F 7.5 °F 58% 30.30 in 10.0 mi SW 4.6 mph - N/A   Clear
5:33 PM 19.2 °F 14.1 °F 7.3 °F 60% 30.30 in 10.0 mi SW 3.5 mph - N/A   Clear
5:53 PM 17.8 °F 12.5 °F 7.0 °F 63% 30.31 in 10.0 mi SW 3.5 mph - N/A   Clear
6:14 PM 14.9 °F - 6.8 °F 70% 30.31 in 10.0 mi Calm Calm - N/A   Clear
6:33 PM 14.4 °F - 6.6 °F 71% 30.31 in 10.0 mi Calm Calm - N/A   Clear
6:53 PM 11.7 °F 3.7 °F 5.4 °F 76% 30.32 in 10.0 mi SSW 4.6 mph - N/A   Clear
7:14 PM 11.3 °F - 5.4 °F 77% 30.32 in 10.0 mi Calm Calm - N/A   Clear
7:33 PM 11.7 °F - 5.4 °F 76% 30.31 in 10.0 mi Calm Calm - N/A   Clear
7:53 PM 8.2 °F - 3.7 °F 82% 30.31 in 10.0 mi Calm Calm - N/A   Clear
8:14 PM 8.6 °F - 3.9 °F 81% 30.31 in 10.0 mi Calm Calm - N/A   Clear
8:33 PM 3.0 °F - -0.4 °F 86% 30.31 in 10.0 mi Calm Calm - N/A   Clear
8:53 PM 3.0 °F - 0.7 °F 90% 30.32 in 10.0 mi Calm Calm - N/A   Clear
9:14 PM 1.2 °F - -1.5 °F 88% 30.32 in 10.0 mi Calm Calm - N/A   Clear
9:33 PM -1.1 °F - -3.8 °F 88% 30.33 in 10.0 mi Calm Calm - N/A   Clear
9:54 PM -1.5 °F - -5.1 °F 85% 30.34 in 10.0 mi Calm Calm - N/A   Clear
10:13 PM 1.4 °F - -1.3 °F 88% 30.35 in 7.0 mi Calm Calm - N/A   Clear
10:33 PM -0.6 °F - -4.0 °F 85% 30.34 in 7.0 mi Calm Calm - N/A   Clear
10:54 PM -3.1 °F - -6.7 °F 85% 30.34 in 10.0 mi Calm Calm - N/A   Clear
11:14 PM -2.2 °F - -6.2 °F 83% 30.34 in 10.0 mi Calm Calm - N/A   Clear
11:33 PM -2.9 °F - -6.3 °F 85% 30.34 in 10.0 mi Calm Calm - N/A   Clear
11:54 PM -2.9 °F - -6.5 °F 85% 30.34 in 10.0 mi Calm Calm - N/A   Clear